Location: Brantley
(31.5822°N, 86.2569°W)
Time: 01:25:42
(UTC+00:00)

Vanguard 3 - Pass Details

Date: 23 February 2026
Orbit: 507 x 3205 km, 33.4° (Epoch: 10 March)

Event Time Altitude Azimuth Distance (km) Brightness Sun altitude
Rises 01:18:50 0° 284° (WNW) 4,211 12.2 -22.2°
Reaches altitude 10° 01:22:24 10° 280° (W) 2,829 11.0 -23.0°
Maximum altitude 01:28:28 50° 206° (SSW) 906 7.4 -24.3°
Enters shadow 01:29:18 44° 173° (S) 932 7.3 -24.5°
Drops below altitude 10° 01:32:29 10° 130° (SE) 1,877 - -25.1°
Sets 01:34:26 0° 124° (SE) 2,665 - -25.5°
